Location: Rowland
(34.5359°N, 79.2929°W)
Time: 17:39:06
(UTC+00:00)

S-56A Canister/Altair - Pass Details

Date: 12 October 2022
Orbit: 638 x 2494 km, 38.9° (Epoch: 06 December)

Event Time Altitude Azimuth Distance (km) Brightness Sun altitude
Exits shadow 10:42:27 10° 275° (W) 3,592 10.2 -8.6°
Reaches altitude 10° 10:42:33 10° 275° (W) 3,565 10.2 -8.6°
Maximum altitude 10:48:43 22° 229° (SW) 2,277 9.6 -7.3°
Drops below altitude 10° 10:53:27 10° 181° (S) 2,643 10.3 -6.3°
Sets 10:56:14 0° 164° (SSE) 3,368 11.1 -5.8°
